Location: Newark
(23.3970°S, 47.6010°W)
Time: 18:38:36
(UTC+00:00)

deb Explorer IX - Pass Details

Date: 21 February 2020
Orbit: 547 x 1100 km, 38.8° (Epoch: 02 April)

Event Time Altitude Azimuth Distance (km) Brightness Sun altitude
Rises 01:41:28 0° 282° (WNW) 3,661 ? -47.6°
Enters shadow 01:41:49 - 282° (WNW) 3,543 ? -47.6°
Reaches altitude 10° 01:44:09 10° 276° (W) 2,785 - -48.0°
Maximum altitude 01:50:41 44° 204° (SSW) 1,442 - -48.9°
Drops below altitude 10° 01:57:40 10° 133° (SE) 2,967 - -49.8°
Sets 02:00:37 0° 127° (SE) 3,920 - -50.2°
